EW2839 Weather Reports


time (UTC)temp
C
wind
direction
speed
KPH
gust
KPH
rain 1hr
cm
rain 24hr
cm
rain mn
cm
humidity
%
barometer
mb
20260507193403 17 216 0.0 9.7 0.00 0.00 0.00 52 1019.0
20260507191904 17 295 3.2 9.7 0.00 0.00 0.00 53 1020.0
20260507190403 16 223 1.6 8.0 0.00 0.00 0.00 54 1019.0
20260507184904 16 160 1.6 4.8 0.00 0.00 0.00 55 1020.0
20260507184404 16 232 1.6 8.0 0.00 0.00 0.00 55 1020.0
20260507183904 16 229 1.6 8.0 0.00 0.00 0.00 57 1020.0
20260507183404 16 298 3.2 9.7 0.00 0.00 0.00 55 1020.0
20260507181904 15 322 0.0 11.3 0.00 0.00 0.00 56 1021.0
20260507180904 15 306 3.2 8.0 0.00 0.00 0.00 57 1020.0
20260507180404 15 307 1.6 8.0 0.00 0.00 0.00 58 1020.0
20260507174904 15 272 1.6 4.8 0.00 0.00 0.00 57 1021.0
20260507174404 15 341 4.8 9.7 0.00 0.00 0.00 56 1021.0
20260507173404 15 340 3.2 8.0 0.00 0.00 0.00 56 1021.0
20260507171903 14 295 4.8 9.7 0.00 0.00 0.00 55 1021.0
20260507171404 14 143 1.6 4.8 0.00 0.00 0.00 57 1021.0
20260507170904 14 15 1.6 3.2 0.00 0.00 0.00 58 1021.0
20260507170404 14 302 3.2 9.7 0.00 0.00 0.00 58 1021.0
20260507163904 13 281 1.6 4.8 0.00 0.00 0.00 59 1021.0
20260507163403 13 311 3.2 9.7 0.00 0.00 0.00 58 1021.0
20260507161903 13 306 1.6 9.7 0.00 0.00 0.00 58 1021.0
20260507161404 13 298 0.0 9.7 0.00 0.00 0.00 59 1021.0
20260507160904 13 313 1.6 9.7 0.00 0.00 0.00 58 1021.0
20260507160404 13 351 1.6 9.7 0.00 0.00 0.00 61 1021.0
20260507153903 13 68 0.0 1.6 0.00 0.00 0.00 61 1021.0
20260507153404 13 309 1.6 4.8 0.00 0.00 0.00 60 1021.0
20260507151904 12 45 4.8 8.0 0.00 0.00 0.00 61 1021.0
20260507151404 12 302 0.0 4.8 0.00 0.00 0.00 62 1021.0
20260507150904 12 352 1.6 8.0 0.00 0.00 0.00 61 1021.0
20260507150403 12 68 0.0 9.7 0.00 0.00 0.00 62 1021.0
20260507144903 12 319 0.0 0.0 0.00 0.00 0.00 63 1021.0
20260507144403 12 338 4.8 8.0 0.00 0.00 0.00 61 1021.0
20260507143903 12 346 0.0 0.0 0.00 0.00 0.00 63 1021.0
20260507143404 12 45 0.0 9.7 0.00 0.00 0.00 63 1021.0
20260507141904 12 68 0.0 3.2 0.00 0.00 0.00 63 1021.0
20260507141405 12 68 0.0 0.0 0.00 0.00 0.00 64 1021.0
20260507140904 12 45 0.0 0.0 0.00 0.00 0.00 64 1021.0
20260507140403 12 0 0.0 3.2 0.00 0.00 0.00 64 1021.0
20260507134904 12 316 1.6 4.8 0.00 0.00 0.00 63 1020.0
20260507134404 12 112 0.0 0.0 0.00 0.00 0.00 64 1020.0
20260507133903 12 356 1.6 3.2 0.00 0.00 0.00 64 1020.0
20260507133404 12 22 0.0 1.6 0.00 0.00 0.00 64 1020.0
20260507130904 12 11 0.0 0.0 0.00 0.00 0.00 63 1021.0
20260507130404 12 349 3.2 8.0 0.00 0.00 0.00 62 1021.0
20260507124904 12 45 0.0 3.2 0.00 0.00 0.00 63 1020.0
20260507124404 12 17 3.2 8.0 0.00 0.00 0.00 63 1020.0
20260507123904 12 45 0.0 0.0 0.00 0.00 0.00 64 1020.0
20260507123404 12 45 0.0 1.6 0.00 0.00 0.00 64 1020.0
20260507121904 12 18 1.6 1.6 0.00 0.00 0.00 65 1021.0
20260507120904 12 22 0.0 0.0 0.00 0.00 0.00 64 1021.0
20260507120405 12 271 0.0 3.2 0.00 0.00 0.00 65 1021.0
20260507114904 12 0 0.0 0.0 0.00 0.00 0.00 65 1021.0
20260507114404 12 315 0.0 1.6 0.00 0.00 0.00 65 1021.0
20260507113904 12 22 0.0 0.0 0.00 0.00 0.00 65 1021.0
20260507113404 12 351 0.0 4.8 0.00 0.00 0.00 65 1021.0
20260507110903 12 296 3.2 8.0 0.00 0.00 0.00 64 1021.0
20260507110403 13 327 1.6 3.2 0.00 0.00 0.00 65 1021.0
20260507104403 12 7 1.6 4.8 0.00 0.00 0.00 64 1021.0
20260507103903 13 270 1.6 4.8 0.00 0.00 0.00 65 1021.0
20260507103403 13 304 1.6 8.0 0.00 0.00 0.00 65 1021.0
20260507101903 13 322 4.8 9.7 0.00 0.00 0.00 64 1021.0
20260507101404 13 342 1.6 8.0 0.00 0.00 0.00 64 1021.0
20260507100903 13 303 1.6 8.0 0.00 0.00 0.00 65 1021.0
20260507100404 13 303 0.0 4.8 0.00 0.00 0.00 65 1021.0
20260507094403 13 321 0.0 4.8 0.00 0.00 0.00 66 1021.0
20260507093904 13 112 0.0 3.2 0.00 0.00 0.00 66 1021.0
20260507091903 13 12 1.6 3.2 0.00 0.00 0.00 66 1021.0
20260507091403 13 297 3.2 8.0 0.00 0.00 0.00 65 1021.0
20260507090904 13 307 3.2 8.0 0.00 0.00 0.00 66 1021.0
20260507090404 13 315 1.6 3.2 0.00 0.00 0.00 66 1021.0
20260507084903 13 0 0.0 4.8 0.00 0.00 0.00 66 1021.0
20260507084404 13 327 1.6 4.8 0.00 0.00 0.00 67 1021.0
20260507083404 13 3 0.0 0.0 0.00 0.00 0.00 67 1021.0
20260507081904 13 25 0.0 0.0 0.00 0.00 0.00 67 1021.0
20260507081404 13 307 0.0 4.8 0.00 0.00 0.00 67 1021.0
20260507080905 13 0 1.6 3.2 0.00 0.00 0.00 67 1021.0
20260507080405 13 22 0.0 4.8 0.00 0.00 0.00 66 1021.0
20260507074904 13 330 0.0 0.0 0.00 0.00 0.00 66 1021.0
20260507074404 13 320 0.0 3.2 0.00 0.00 0.00 66 1021.0
20260507073905 13 315 0.0 0.0 0.00 0.00 0.00 66 1021.0
20260507073404 13 22 0.0 0.0 0.00 0.00 0.00 66 1021.0
20260507071904 13 45 0.0 8.0 0.00 0.00 0.00 66 1021.0
20260507071404 13 316 4.8 8.0 0.00 0.00 0.00 65 1021.0
20260507070904 13 29 1.6 4.8 0.00 0.00 0.00 66 1021.0
20260507070404 13 0 1.6 9.7 0.00 0.00 0.00 66 1021.0
20260507064904 13 300 0.0 4.8 0.00 0.00 0.00 66 1021.0
20260507064405 13 306 1.6 9.7 0.00 0.00 0.00 66 1021.0
20260507063904 13 328 1.6 9.7 0.00 0.00 0.00 66 1021.0
20260507063404 13 301 1.6 8.0 0.00 0.00 0.00 66 1021.0
20260507061905 13 287 3.2 4.8 0.00 0.00 0.00 65 1021.0
20260507060405 14 299 0.0 4.8 0.00 0.00 0.00 66 1021.0
20260507031404 16 300 8.0 9.7 0.00 0.00 0.00 64 1020.0
20260507030904 16 79 0.0 8.0 0.00 0.00 0.00 65 1020.0
20260507030403 16 68 1.6 11.3 0.00 0.00 0.00 64 1020.0
20260507024905 16 342 4.8 11.3 0.00 0.00 0.00 64 1020.0
20260507024404 16 327 0.0 9.7 0.00 0.00 0.00 64 1020.0
20260507023904 17 22 1.6 9.7 0.00 0.00 0.00 64 1020.0
20260507021904 17 26 1.6 8.0 0.00 0.00 0.00 64 1020.0
20260507021404 17 45 0.0 3.2 0.00 0.00 0.00 64 1020.0
20260507020904 17 333 0.0 3.2 0.00 0.00 0.00 64 1020.0
20260507020403 17 349 1.6 9.7 0.00 0.00 0.00 63 1020.0
20260507014904 18 354 8.0 11.3 0.00 0.00 0.00 63 1020.0
20260507014404 18 333 3.2 9.7 0.00 0.00 0.00 64 1020.0
20260507013903 18 310 3.2 9.7 0.00 0.00 0.00 64 1020.0
20260507013403 18 12 1.6 11.3 0.00 0.00 0.00 64 1020.0
20260507011904 18 306 1.6 4.8 0.00 0.00 0.00 63 1020.0
20260507010904 18 337 0.0 3.2 0.00 0.00 0.00 64 1020.0
20260507010403 18 310 1.6 8.0 0.00 0.00 0.00 63 1020.0
20260507004905 18 0 0.0 3.2 0.00 0.00 0.00 63 1020.0
20260507004404 18 38 1.6 3.2 0.00 0.00 0.00 63 1020.0
20260507003404 19 57 0.0 4.8 0.00 0.00 0.00 62 1020.0
20260507001904 19 338 0.0 3.2 0.00 0.00 0.00 63 1020.0
20260507001404 19 68 0.0 0.0 0.00 0.00 0.00 62 1020.0
20260507000904 19 248 0.0 4.8 0.00 0.00 0.00 61 1020.0
20260507000405 19 101 0.0 8.0 0.00 0.00 0.00 61 1020.0
20260506234904 20 244 0.0 3.2 0.00 0.00 0.00 60 1020.0
20260506234404 20 342 1.6 4.8 0.00 0.00 0.00 60 1020.0
20260506233904 20 235 1.6 8.0 0.00 0.00 0.00 60 1020.0
20260506233404 21 11 3.2 8.0 0.00 0.00 0.00 55 1020.0
20260506231904 19 131 0.0 0.0 0.00 0.00 0.00 64 1020.0
20260506231404 19 197 0.0 1.6 0.00 0.00 0.00 64 1020.0
20260506230903 19 124 0.0 0.0 0.00 0.00 0.00 63 1020.0
20260506230404 18 45 1.6 3.2 0.00 0.00 0.00 64 1020.0
20260506224903 19 26 1.6 4.8 0.00 0.00 0.00 62 1020.0
20260506224404 19 292 1.6 8.0 0.00 0.00 0.00 64 1021.0
20260506223904 19 311 0.0 8.0 0.00 0.00 0.00 64 1021.0
20260506223404 19 43 0.0 8.0 0.00 0.00 0.00 63 1021.0
20260506221404 19 146 1.6 4.8 0.00 0.00 0.00 62 1021.0
20260506220904 19 19 4.8 8.0 0.00 0.00 0.00 62 1021.0
20260506220404 20 197 1.6 11.3 0.00 0.00 0.00 61 1021.0
20260506214905 19 172 1.6 9.7 0.00 0.00 0.00 62 1021.0
20260506213904 18 180 1.6 4.8 0.00 0.00 0.00 64 1021.0
20260506213403 18 195 1.6 8.0 0.00 0.00 0.00 67 1021.0
20260506211904 18 248 1.6 4.8 0.00 0.00 0.00 67 1020.0
20260506211404 18 306 0.0 3.2 0.00 0.00 0.00 68 1021.0
20260506210904 18 302 1.6 4.8 0.00 0.00 0.00 68 1021.0
20260506210403 18 205 0.0 8.0 0.00 0.00 0.00 69 1021.0
20260506204905 17 232 3.2 8.0 0.00 0.00 0.00 69 1021.0
20260506204403 17 220 3.2 4.8 0.00 0.00 0.00 69 1021.0
20260506203904 17 256 6.4 11.3 0.00 0.00 0.00 68 1021.0
20260506203403 17 250 4.8 9.7 0.00 0.00 0.00 68 1021.0
20260506201903 17 253 1.6 8.0 0.00 0.00 0.00 70 1021.0
20260506201403 17 221 0.0 0.0 0.00 0.00 0.00 71 1021.0
20260506200904 17 224 4.8 8.0 0.00 0.00 0.00 70 1021.0
20260506194904 17 303 0.0 3.2 0.00 0.00 0.00 72 1020.0
20260506194404 16 344 0.0 4.8 0.00 0.00 0.00 72 1021.0
20260506193904 16 229 0.0 3.2 0.00 0.00 0.00 71 1021.0